Breeders Fall Classic - INVENTORY--ONLY BIRDS OUT

Station: INVENTORY - T Race

Distance: 10 Miles    

Release: 14-May-2019 10:00

Weather Release:    Arrival:

Wind at Release:     Wind at Arrival:

Temp at Release: °    Temp at Arrival: °

Lofts: 92

Birds: 392

Clocked: 318

Good Luck to Everyone!
Drops Pos Breeder Pigeon Name Color Sex Ent Arrival Speed To Win Eligible RedGriz
1 Bushmaster & Nieves Loft - PR 4011-AU19-ARPU Chimuelo BB H 1 11:18:37.30 223.857 00:00:00 Yes
2 Silicon Valley Syndicates - CA 19005-AU19-SVS BB H 1 11:21:37.10 215.638 00:03:00 Yes
3 Cherokee Loft - MI 0510-AU19-CHEK BCWF H 1 11:21:38.60 215.572 00:03:01 Yes
4 Genesis Syndicate Loft - AZ 0746-AU19-GENS BB H 1 11:21:53.80 214.905 00:03:17 Yes
5 Andy Owen - GA 1053-AU19-CGA BBPW H 1 11:22:22.70 213.648 00:03:45 Yes
6 Marengo Creek Farms - AL 3207-AU19-MCF BB H 1 11:22:29.40 213.359 00:03:52 Yes
7 Clear Springs Loft - FL 0073-AU19-WARD RC H 1 11:22:29.80 213.342 00:03:53 Yes
8 Drama Queen Loft - TX 0938-AU19-GCI BB H 1 11:22:35.20 213.109 00:03:58 Yes
9 Eastern Pearl Loft - VA 0572-AU19-EPL 🈚️量572=032x857 BB H 1 11:22:39.10 212.942 00:04:02 Yes
10 Andy Owen - GA 1057-AU19-CGA BB H 2 11:22:45.90 212.650 00:04:09 Yes
11 Sheriff & Fabian - PR 3375-IF19-UCPR Kanibalizem BB H 1 11:22:47.80 212.569 00:04:11 Yes
12 Iditarod Loft - NV 17206-AU19-AA BC H 1 11:22:55.70 212.231 00:04:18 Yes
13 Irishsyndicatelofts - AZ 0498-IF19-IRIS BBSP H 1 11:22:57.10 212.172 00:04:20 Yes
14 Relax /Rolex Loft - CA 80728-AU19-MAN BC H 1 11:22:59.30 212.078 00:04:22 Yes
15 Chen Loft - PA 0666-IF19-LU ALL/112 BB H 1 11:23:05.30 211.823 00:04:28 Yes
16 Dehesa Valley Classic - CA 19654-AU19-DEHE BB H 1 11:23:10.50 211.602 00:04:33 Yes
17 King Conch Loft - ON 0131-CU19-KING BB H 1 11:23:40.40 210.342 00:05:03 Yes
18 De La O/Sino/Baro - CA 9006-AU19-COOK DCPD H 1 11:23:42.20 210.266 00:05:05 Yes
19 Jimmy Zheng Loft - MS 0954-AU19-ZHEN BC H 1 11:23:51.10 209.894 00:05:14 Yes
20 K T Loft - IN 0419-AU19-KTLF BB H 1 11:23:53.40 209.799 00:05:16 Yes
21 Columba Loft - GA 9164-AU19-LYCH BB H 1 11:24:08.20 209.183 00:05:31 Yes
22 J & M Partridge Loft - CA 1617-AU19-PASO MELY H 1 11:24:13.60 208.960 00:05:36 Yes
23 Greek Connection - SC 1409-AU19-GREK BB H 1 11:24:34.70 208.091 00:05:57 Yes
24 Da-Dong - WI 1617-AU19-RAC BC H 1 11:24:34.90 208.083 00:05:58 Yes
25 Los Cubanitos Loft 2 - GA 0106-AU19-JEDD BB H 1 11:24:45.70 207.641 00:06:08 Yes
26 Double J Racing Loft - OH 0004-AU19-POUS BB H 1 11:24:46.50 207.608 00:06:09 Yes
27 3 Stars & A Sun Loft - TX 0413-AU19-STAR BCWF H 1 11:24:48.10 207.543 00:06:11 Yes
28 Nemelka Racing Pigeon Loft - UT 9000-AU19-NRPL Nitty Gritty(Florian x S) BB C 1 11:25:07.20 206.767 00:06:30 Yes
29 Crescendo Loft - NM 4737-AU19-VITA BB H 1 11:25:11.20 206.605 00:06:34 Yes
30 Crazy Als Lofts - CO 5534-AU19-CRAZ BB H 1 11:25:12.10 206.569 00:06:35 Yes
31 Marengo Creek Farms - AL 3260-AU19-MCF BB H 2 11:25:15.40 206.435 00:06:38 Yes
32 Red Ass Ranch - TX 0402-AU19-RAR BBPN H 1 11:25:16.30 206.399 00:06:39 Yes
33 Drama Queen Loft - TX 0937-AU19-GCI BB H 2 11:25:16.70 206.383 00:06:39 Yes
34 Los Cubanitos Loft 2 - GA 0116-AU19-JEDD BC H 2 11:25:19.50 206.270 00:06:42 Yes
35 Si Se Puede Loft - TX 1950-AU19-SISE BB H 1 11:25:27.70 205.940 00:06:50 Yes
36 Genesis Syndicate Loft - AZ 0737-AU19-GENS BBSP H 2 11:25:33.30 205.716 00:06:56 Yes
37 Torresloft - NC 0701-IF19-TRC BBWF H 1 11:25:36.60 205.583 00:06:59 Yes
38 Marengo Creek Farms - AL 3277-AU19-MCF BB H 3 11:25:37.30 205.555 00:07:00 Yes
39 Kastle Loft - KY 1929-AU19-KASL Kiss Me BB H 1 11:25:38.20 205.519 00:07:01 Yes
40 Walters Loft - NJ 27508-AU19-ARPU RCPD H 1 11:25:39.60 205.463 00:07:02 Yes
41 Avelino Loft - CA 0327-AU19-HAN BB H 1 11:25:40.30 205.435 00:07:03 Yes
41 Kai Loft - PA 1012-IF19-KAI DC H 1 11:25:40.30 205.435 00:07:03 Yes
43 Bushmaster & Nieves Loft - PR 6807-AU19-ARPU Mexico Lindo DC H 2 11:25:41.60 205.384 00:07:04 Yes
44 Crescendo Loft - NM 4730-AU19-VITA BB H 2 11:25:44.50 205.268 00:07:07 Yes
45 King Conch Loft - ON 0119-CU19-KING BC H 2 11:25:46.40 205.192 00:07:09 Yes
46 Apple Cup - WA 2503-AU19-YAK BC H 1 11:25:47.90 205.132 00:07:11 Yes
47 De La O/Sino/Baro - CA 9026-AU19-COOK BB H 2 11:25:48.30 205.116 00:07:11 Yes
48 Columba Loft - GA 9163-AU19-LYCH BB H 2 11:25:50.60 205.025 00:07:13 Yes
49 America Loft - IN 0093-AU19-AMER BB H 1 11:26:10.80 204.224 00:07:33 Yes
50 Si Se Puede Loft - TX 1919-AU19-SISE BBWF H 2 11:26:14.40 204.082 00:07:37 Yes
51 Mike Hines - SD 9170-AU19-GPF RC H 1 11:26:18.90 203.904 00:07:42 Yes
52 Era Loft - NY 0625-AU19-BUF BC H 1 11:26:20.00 203.861 00:07:43 Yes
53 Emerson & Donnelly - SC 0221-AU19-MERL BB H 1 11:26:23.00 203.743 00:07:46 Yes
54 Double J Racing Loft - OH 0005-AU19-POUS BB H 2 11:26:23.50 203.723 00:07:46 Yes
55 Bill Hermann - MO 1216-AU19-AA BB H 1 11:26:28.50 203.527 00:07:51 Yes
56 Bushmaster & Nieves Loft - PR 6805-AU19-ARPU Kill Duo DC H 3 11:26:39.10 203.112 00:08:02 Yes
57 Columba Loft - GA 9283-AU19-LYCH BB H 3 11:26:39.70 203.089 00:08:02 Yes
58 Nemelka Racing Pigeon Loft - UT 9004-AU19-NRPL Ronin (Kleine Champion) BC C 2 11:26:41.60 203.014 00:08:04 Yes
59 Kai Loft - PA 1007-IF19-KAI BC H 2 11:26:42.30 202.987 00:08:05 Yes
60 Bushmaster & Nieves Loft - PR 4013-AU19-ARPU Cojeme si puedes BBWF H 4 11:26:42.70 202.972 00:08:05 Yes
61 Wingsnwindloft - NY 9142-AU19-BISN BBWF H 1 11:26:44.90 202.886 00:08:08 Yes
62 Crescendo Loft - NM 4727-AU19-VITA BB H 3 11:26:46.10 202.839 00:08:09 Yes
63 King Conch Loft - ON 0802-AU19-SMCC BB H 3 11:26:46.60 202.819 00:08:09 Yes
64 Sunshine Loft 2 - SC 0123-AU19-PAK Silk - Islamabad BBPN C 1 11:26:48.50 202.746 00:08:11 Yes
65 3 Stars & A Sun Loft - TX 0412-AU19-STAR BBPW H 2 11:26:48.60 202.742 00:08:11 Yes
66 Dave Conover - PA 9075-IF19-DVC BB H 1 11:26:49.50 202.707 00:08:12 Yes
67 John Fukumoto - HI 0777-AU19-HAWN BB H 1 11:26:56.30 202.442 00:08:19 Yes
68 Linda Loft - PA 6085-IF19-GPC BB H 1 11:26:56.60 202.431 00:08:19 Yes
69 Eastern Pearl Loft - VA 0567-AU19-EPL 🈚️量567=051x263 BB H 2 11:26:59.60 202.314 00:08:22 Yes
70 Cherokee Loft - MI 0504-AU19-CHEK BB H 2 11:27:00.10 202.295 00:08:23 Yes
71 Genesis Syndicate Loft - AZ 0774-AU19-GENS BBPW H 3 11:27:02.60 202.198 00:08:25 Yes
72 King Brand Syndicate - IA 66511-AU19-ARPU BBWF H 1 11:27:11.70 201.846 00:08:34 Yes
73 98 M J - PA 0032-AU19-AJLF WHGZ H 1 11:27:17.40 201.627 00:08:40 Yes
74 Genesis Syndicate Loft - AZ 0024-AU19-GENS BB H 4 11:27:18.20 201.596 00:08:41 Yes
75 Sheriff & Fabian - PR 3384-IF19-UCPR Silver Phantom RC H 2 11:27:29.60 201.158 00:08:52 Yes
76 Hale Nūnū - VA 0018-IF19-NUNU GRIZ H 1 11:27:31.90 201.070 00:08:55 Yes
77 Irishsyndicatelofts - AZ 0710-IF19-IRIS BC H 2 11:27:40.20 200.753 00:09:03 Yes
78 Thunder Birds/Rodriguez Breeding Loft - TX 19566-AU19-WIN Mon-Hou BB H 1 11:27:40.70 200.734 00:09:03 Yes
79 Era Loft - NY 0601-AU19-BUF BBSP H 2 11:27:42.00 200.684 00:09:05 Yes
80 Shi Loft - PA 7015-IF19-ERIE BC H 1 11:27:42.40 200.669 00:09:05 Yes
81 Jed Loft - LA 0911-AU19-JED BB H 1 11:27:42.80 200.654 00:09:05 Yes
81 America Loft - IN 0095-AU19-AMER BB H 2 11:27:42.80 200.654 00:09:05 Yes
83 K T Loft - IN 0425-AU19-KTLF BB H 2 11:27:43.70 200.619 00:09:06 Yes
84 Sheriff & Fabian - PR 3347-IF19-UCPR Don't Look Back BB H 3 11:27:44.40 200.593 00:09:07 Yes
85 Kastle Loft - KY 24192-AU19-ARPU Kill Me OPAL H 2 11:27:44.80 200.577 00:09:08 Yes
86 Iditarod Loft - NV 17220-AU19-AA BC H 2 11:27:45.20 200.562 00:09:08 Yes
87 Thunder Birds/Rodriguez Breeding Loft - TX 19052-AU19-WIN Boots BC H 2 11:27:45.70 200.543 00:09:08 Yes
88 America Loft - IN 0003-AU19-AMER BBWF H 3 11:27:46.10 200.528 00:09:09 Yes
89 Lin's Loft - CT 0007-AU19-LIN CHSP H 1 11:27:46.90 200.497 00:09:10 Yes
90 Hunsicker Ranch - CA 18523-AU19-SYV BC H 1 11:27:47.40 200.478 00:09:10 Yes
91 Relax /Rolex Loft - CA 80726-AU19-MAN BCWF H 2 11:27:49.00 200.418 00:09:12 Yes
92 Double J Racing Loft - OH 0002-AU19-POUS DC H 3 11:27:49.70 200.391 00:09:12 Yes
93 Rodney Morris - ON 0104-CU19-KING BC H 1 11:27:50.70 200.353 00:09:13 Yes
94 Jimmy Zheng Loft - MS 0829-AU19-ZHEN BB H 2 11:27:51.40 200.326 00:09:14 Yes
95 Elton Dinga - TX 16150-AU19-AA Victor 393 x Costello 210 BB H 1 11:27:52.20 200.296 00:09:15 Yes
96 Genesis Syndicate Loft - AZ 0020-AU19-GENS BB H 5 11:27:52.80 200.273 00:09:16 Yes
97 Hale Nūnū - VA 0004-IF19-NUNU BB H 2 11:27:54.70 200.201 00:09:17 Yes
98 Columba Loft - GA 9113-AU19-LYCH BC H 4 11:27:57.00 200.114 00:09:20 Yes
99 Dons Loft - SC 0465-IF19-CVR WHGZ H 1 11:27:58.00 200.076 00:09:21 Yes
99 America Loft - IN 0098-AU19-AMER BB H 4 11:27:58.00 200.076 00:09:21 Yes

There are 412 bird records

Note: These Race Results are unofficial and subject to change until verified by the Race Committee and declared final.